Location: Rowland
(34.5359°N, 79.2929°W)
Time: 22:31:52
(UTC+00:00)

A-11 Canister half - Pass Details

Date: 04 October 2022
Orbit: 1516 x 1684 km, 47.2° (Epoch: 28 November)

Event Time Altitude Azimuth Distance (km) Brightness Sun altitude
Rises 05:17:00 0° 295° (WNW) 4,756 11.7 -59.7°
Enters shadow 05:17:06 - 295° (WNW) 4,728 11.7 -59.7°
Exits shadow 05:40:48 - 86° (E) 4,582 11.6 -58.8°
Sets 05:41:04 0° 86° (E) 4,667 11.7 -58.7°
